[[{"header":{"parameterUnit":"m.s-1","parameterCategory":1,"la1":30.2991,"la2":30.254,"lo1":-89.0895,"lo2":-89.0444,"dy":0.0017,"dx":0.0017,"nx":28,"ny":28,"refTime":"2025-07-31T21:00:00:Z","depth":0,"parameterNumber":2,"parameterNumberName":"U-component_of_WINDS"},"data":[0,0,0,0,0,0,0,0,0,0,0,0,0,0,0,0,0,0,0,0,0,0,0,0,0,0,0,0,0,0,0,0,0,0,0,0,0,0,0,0,0,0,0,0,0,0,0,0,0,0,0,0,0,0,0,0,0,0,2.6038,2.6039,0,2.6142,2.6143,2.6144,2.6128,2.6126,2.6124,2.6123,2.6234,2.6239,2.6243,0,0,0,0,0,0,0,0,0,0,0,0,0,2.5831,2.5834,2.6038,2.604,2.6041,2.6142,2.6143,2.6145,2.6128,2.6126,2.6124,2.6122,2.6233,2.6238,2.6244,0,0,0,0,0,0,0,0,0,0,0,0,0,2.5926,2.5836,2.6038,2.6045,2.6046,2.6142,2.6143,2.6145,2.6129,2.6126,2.6123,2.6121,2.6231,2.6238,2.6245,2.6342,0,0,2.6266,2.6269,0,0,0,0,0,0,0,0,2.5921,2.5934,2.6042,2.6044,2.6046,2.6119,2.6111,2.6211,2.6129,2.6098,2.6123,2.6119,2.6199,2.6208,2.6234,2.6347,2.6352,2.6267,2.6271,2.6274,2.6276,0,0,0,0,0,0,0,2.5914,2.5929,2.6079,2.6044,2.6046,2.6044,2.6055,2.613,2.6162,2.61,2.6099,2.6111,2.6199,2.6227,2.6236,2.6353,2.6266,2.6273,2.6277,2.628,2.6551,2.6554,0,0,0,0,0,0,2.5905,2.5924,2.6076,2.6083,2.5976,2.605,2.6062,2.6099,2.6161,2.6168,2.6114,2.611,2.6216,2.6228,2.624,2.6357,2.6274,2.628,2.6284,2.6548,2.6552,2.6555,0,0,0,0,0,0,2.5901,2.5919,2.6072,2.6003,2.6022,2.6056,2.6098,2.6102,2.613,2.6171,2.6177,2.6136,2.6215,2.623,2.6316,2.6361,2.6283,2.629,2.6545,2.6549,2.6554,2.6592,0,0,0,0,0,0,2.5895,2.5917,2.5953,2.6004,2.6026,2.6145,2.6101,2.6106,2.6141,2.6138,2.6194,2.62,2.6214,2.6306,2.6323,2.6369,2.6295,2.6541,2.6547,2.6552,2.6587,2.6598,2.6607,0,0,0,0,0,2.5887,2.5961,2.5955,2.5974,2.6072,2.6147,2.616,2.6173,2.6145,2.6182,2.6209,2.6199,2.6353,2.6315,2.6334,2.6383,2.6538,2.6545,2.6552,2.6583,2.6596,2.6606,0,0,0,0,0,0,2.5917,2.5968,2.5962,2.6054,2.6096,2.6144,2.6192,2.6186,2.6238,2.6233,2.6248,2.6261,2.6348,2.6374,2.633,2.648,2.6442,2.6453,2.6459,2.6472,2.6481,2.6473,2.6301,0,0,0,0,0,2.5934,2.599,2.6032,2.611,2.6131,2.6158,2.6191,2.6197,2.6242,2.626,2.6293,2.6339,2.6398,2.6436,2.6493,2.6591,2.6603,2.6634,2.6644,2.6652,2.6661,2.6715,2.6729,2.6578,2.6578,2.6577,0,0,2.597,2.6005,2.604,2.6116,2.615,2.6208,2.6173,2.6237,2.6281,2.6271,2.6353,2.6379,2.6431,2.6523,2.6566,2.6548,2.6705,2.666,2.6666,2.6671,2.6723,2.6737,2.675,2.6582,2.6581,2.6581,0,0,2.6066,2.6098,2.6165,2.6199,2.6249,2.6267,2.6283,2.6332,2.6348,2.6431,2.6424,2.6478,2.6579,2.6616,2.6648,2.6757,2.675,2.6776,2.6826,2.6878,2.689,2.6901,2.6939,2.6953,2.6785,2.6785,2.6785,0,2.6105,2.6191,2.6201,2.6265,2.6299,2.6291,2.636,2.6394,2.6461,2.6485,2.6464,2.659,2.6624,2.6725,2.6751,2.6778,2.6797,2.6769,2.6887,2.6898,2.6908,2.6945,2.696,2.6788,2.6787,2.6787,2.6787,0,2.6237,2.6297,2.6346,2.6408,2.6448,2.6515,2.6536,2.6576,2.6578,2.6598,2.6682,2.6723,2.6787,2.6812,2.6816,2.6914,2.6901,2.6884,2.6846,2.6925,2.696,2.6974,2.6792,2.6791,2.679,2.6789,0,0,2.6353,2.642,2.6438,2.6466,2.6521,2.6569,2.6635,2.6696,2.673,2.6777,2.6833,2.6918,2.6902,2.6939,2.6947,2.6993,2.7076,2.697,2.6971,2.6988,2.7186,2.7198,2.7214,2.7072,2.7075,2.7077,2.7181,0,2.6454,2.6569,2.658,2.6684,2.674,2.6733,2.6791,2.6832,2.6853,2.6904,2.6928,2.6988,2.6962,2.6984,2.7029,2.7056,2.7116,2.7049,2.7125,2.7128,2.7111,2.7232,2.7246,2.7342,2.7195,2.7197,2.7199,0,2.6586,2.6634,2.6743,2.679,2.6814,2.6865,2.6922,2.6971,2.7018,2.703,2.707,2.7072,2.7142,2.7101,2.7198,2.7152,2.7184,2.7203,2.7207,2.7214,2.7168,2.7242,2.7373,2.7387,2.7221,2.7219,2.7218,0,2.6659,2.6752,2.6829,2.6854,2.691,2.6946,2.6972,2.7016,2.7052,2.7102,2.7125,2.7184,2.7216,2.7262,2.728,2.7249,2.7376,2.7337,2.7388,2.7388,2.7415,2.7412,2.7552,2.7437,2.7436,2.7436,2.7436,0,2.6769,2.6836,2.6862,2.691,2.6985,2.6998,2.7072,2.7096,2.7135,2.7188,2.7187,2.7237,2.7257,2.7311,2.7326,2.7404,2.7419,2.7431,2.7434,2.743,2.7429,2.7451,2.7445,2.744,2.7439,2.7438,2.7438,0,2.6864,2.6884,2.6967,2.7013,2.7027,2.708,2.712,2.7167,2.7186,2.7253,2.727,2.7302,2.7365,2.7387,2.7465,2.7474,2.7564,2.7562,2.7548,2.7548,2.7598,2.7592,2.7756,2.7777,2.7649,2.765,2.7651,0,2.6932,2.6983,2.7034,2.7069,2.7095,2.7151,2.7187,2.7202,2.724,2.7297,2.7336,2.7399,2.7449,2.755,2.7581,2.764,2.7639,2.7692,2.7648,2.7643,2.7639,2.7635,2.764,2.77,2.7702,2.7703,2.7704,0,2.7052,2.7059,2.711,2.7165,2.7207,2.7252,2.7295,2.7324,2.7345,2.7388,2.7452,2.7491,2.7569,2.7631,2.7691,2.7719,2.7715,2.7717,2.7732,2.7729,2.7718,2.7724,2.7569,2.7713,2.7712,2.7712,2.7711,2.7711,2.7135,2.7179,2.7222,2.7279,2.7313,2.7353,2.7398,2.7423,2.7476,2.7539,2.7545,2.7614,2.7659,2.774,2.777,2.7825,2.781,2.7832,2.7838,2.7842,2.7845,2.771,2.7836,2.7836,2.7836,2.7836,2.7835,0,2.7253,2.728,2.7332,2.7392,2.7437,2.7428,2.7475,2.7514,2.7573,2.7615,2.7665,2.7738,2.7798,2.7833,2.7893,2.793,2.793,2.7945,2.7942,2.7949,2.7855,2.7836,2.7944,2.7944,2.7944,2.7944,2.7944,2.7944,2.732,2.7395,2.7407,2.7499,2.7526,2.7591,2.7619,2.7656,2.769,2.7771,2.782,2.7842,2.7882,2.7945,2.8,2.8009,2.8031,2.8047,2.8055,2.7967,2.7956,2.7945,2.7927,2.8052,2.8052,2.8144,2.8145,2.8145]},{"header":{"parameterUnit":"m.s-1","parameterCategory":1,"la1":30.2991,"la2":30.254,"lo1":-89.0895,"lo2":-89.0444,"dy":0.0017,"dx":0.0017,"nx":28,"ny":28,"refTime":"2025-07-31T21:00:00:Z","depth":0,"parameterNumber":3,"parameterNumberName":"V-component_of_WINDS"},"data":[0,0,0,0,0,0,0,0,0,0,0,0,0,0,0,0,0,0,0,0,0,0,0,0,0,0,0,0,0,0,0,0,0,0,0,0,0,0,0,0,0,0,0,0,0,0,0,0,0,0,0,0,0,0,0,0,0,0,3.3542,3.3542,0,3.3562,3.3562,3.3562,3.3591,3.3591,3.3592,3.3592,3.361,3.361,3.361,0,0,0,0,0,0,0,0,0,0,0,0,0,3.3525,3.3525,3.3542,3.3542,3.3542,3.3562,3.3562,3.3562,3.3591,3.3591,3.3592,3.3593,3.361,3.361,3.361,0,0,0,0,0,0,0,0,0,0,0,0,0,3.3537,3.3525,3.3542,3.3559,3.3561,3.3562,3.3562,3.3562,3.3591,3.3591,3.3592,3.3593,3.361,3.361,3.361,3.3595,0,0,3.361,3.361,0,0,0,0,0,0,0,0,3.3536,3.3538,3.3556,3.3558,3.356,3.3575,3.3562,3.3573,3.359,3.3579,3.3592,3.3593,3.3597,3.3598,3.36,3.3596,3.3596,3.361,3.361,3.361,3.361,0,0,0,0,0,0,0,3.3535,3.3537,3.355,3.3556,3.3559,3.3564,3.3567,3.3565,3.3584,3.358,3.3582,3.3584,3.3598,3.36,3.3601,3.3597,3.361,3.361,3.361,3.361,3.3578,3.3577,0,0,0,0,0,0,3.3532,3.3536,3.3549,3.355,3.355,3.3564,3.3567,3.3569,3.3584,3.3587,3.3584,3.3586,3.36,3.3601,3.3602,3.3583,3.361,3.361,3.361,3.3579,3.3578,3.3577,0,0,0,0,0,0,3.3532,3.3533,3.3548,3.3544,3.3546,3.3564,3.3566,3.3569,3.3571,3.3587,3.359,3.3582,3.3601,3.3602,3.3596,3.3584,3.361,3.361,3.358,3.3579,3.3577,3.3547,0,0,0,0,0,0,3.3531,3.3533,3.3528,3.3543,3.3546,3.3543,3.3565,3.3569,3.3571,3.3574,3.3586,3.3589,3.3601,3.3596,3.3596,3.3585,3.361,3.3581,3.3579,3.3578,3.355,3.3545,3.3542,0,0,0,0,0,3.3531,3.3519,3.3528,3.3529,3.3541,3.3543,3.3544,3.3559,3.357,3.3565,3.3575,3.3589,3.3586,3.3595,3.3595,3.3584,3.3582,3.358,3.3578,3.3551,3.3546,3.3542,0,0,0,0,0,0,3.3502,3.3521,3.3532,3.3525,3.3532,3.3547,3.3541,3.3554,3.3557,3.3559,3.3577,3.358,3.3571,3.3577,3.3587,3.3569,3.3586,3.3584,3.3565,3.3561,3.3557,3.3555,3.361,0,0,0,0,0,3.3495,3.3495,3.3512,3.3504,3.3508,3.3524,3.3525,3.3536,3.3544,3.3547,3.3556,3.3562,3.3562,3.3562,3.3563,3.3551,3.3553,3.3543,3.3539,3.3536,3.3534,3.3525,3.352,3.3571,3.3571,3.3571,0,0,3.348,3.3491,3.349,3.3499,3.3506,3.3504,3.3526,3.3524,3.3523,3.3546,3.3541,3.3548,3.3555,3.3546,3.3542,3.355,3.352,3.3534,3.3531,3.353,3.3523,3.3518,3.3514,3.3569,3.357,3.357,0,0,3.3452,3.3461,3.3455,3.3461,3.3471,3.3482,3.348,3.3493,3.3499,3.3494,3.3511,3.3509,3.351,3.3514,3.3516,3.3488,3.35,3.3488,3.3467,3.3459,3.3455,3.3451,3.3439,3.3435,3.3486,3.3486,3.3486,0,3.3432,3.3432,3.345,3.3446,3.3449,3.347,3.3463,3.3468,3.3477,3.3478,3.3488,3.3488,3.3495,3.3485,3.3478,3.348,3.3477,3.3487,3.3454,3.3451,3.3448,3.3437,3.3432,3.3485,3.3485,3.3485,3.3485,0,3.3406,3.3405,3.3399,3.3408,3.3409,3.3404,3.342,3.3419,3.343,3.3439,3.3433,3.3441,3.3444,3.3443,3.3453,3.3434,3.3439,3.3451,3.3468,3.3441,3.3431,3.3427,3.3482,3.3483,3.3483,3.3484,0,0,3.336,3.3378,3.3375,3.3379,3.3391,3.339,3.3385,3.3388,3.3386,3.3392,3.3387,3.3386,3.3397,3.34,3.3411,3.3404,3.3378,3.3417,3.3417,3.3407,3.3355,3.3344,3.3339,3.3387,3.3386,3.3385,3.3353,0,3.3333,3.3326,3.3341,3.333,3.3328,3.3348,3.3343,3.3349,3.3357,3.3356,3.3365,3.3363,3.3379,3.338,3.3374,3.3382,3.3367,3.3385,3.338,3.3379,3.3376,3.3334,3.3323,3.3292,3.335,3.3349,3.3349,0,3.3301,3.3305,3.3293,3.3304,3.3304,3.33,3.3303,3.3302,3.3308,3.3314,3.3317,3.3329,3.3323,3.334,3.3331,3.3343,3.3341,3.3345,3.3344,3.3343,3.3361,3.3329,3.3283,3.3278,3.3343,3.3343,3.3344,0,3.3266,3.3268,3.3261,3.3264,3.3277,3.3273,3.3278,3.3286,3.3286,3.3288,3.3288,3.329,3.329,3.329,3.3302,3.3314,3.329,3.3309,3.3294,3.3293,3.3287,3.3286,3.3237,3.3289,3.3289,3.3289,3.3289,0,3.3233,3.3225,3.3246,3.3241,3.3232,3.3249,3.3238,3.3245,3.3251,3.3247,3.3265,3.326,3.3277,3.3274,3.3284,3.3273,3.3274,3.3277,3.3279,3.3274,3.3274,3.3273,3.3274,3.3288,3.3288,3.3288,3.3288,0,3.3192,3.3206,3.3199,3.3213,3.3215,3.3208,3.3218,3.3213,3.3223,3.3217,3.3217,3.323,3.3227,3.324,3.3239,3.3245,3.3229,3.3236,3.3227,3.3228,3.3211,3.3212,3.3158,3.3151,3.3208,3.3208,3.3207,0,3.317,3.3164,3.3176,3.3175,3.3179,3.3177,3.3177,3.3193,3.3193,3.3199,3.3193,3.3191,3.3191,3.3185,3.3194,3.3193,3.3198,3.318,3.3198,3.3193,3.3195,3.3195,3.3193,3.3175,3.3174,3.3174,3.3173,0,3.3127,3.3134,3.3134,3.3136,3.3136,3.3138,3.3142,3.314,3.3157,3.3155,3.3152,3.3152,3.3151,3.3148,3.3149,3.3153,3.3165,3.3168,3.3164,3.3158,3.3152,3.3153,3.3214,3.3168,3.3169,3.3169,3.317,3.317,3.3093,3.3088,3.3095,3.3094,3.3099,3.3101,3.3097,3.3105,3.3104,3.3104,3.3114,3.3109,3.3113,3.3116,3.3118,3.3113,3.3122,3.3116,3.3115,3.3113,3.3109,3.3154,3.3114,3.3114,3.3114,3.3114,3.3114,0,3.305,3.3055,3.3055,3.3058,3.3057,3.307,3.3074,3.3072,3.3067,3.3071,3.307,3.3066,3.3064,3.3072,3.307,3.3065,3.307,3.3063,3.3063,3.3063,3.3102,3.3105,3.3059,3.3059,3.3059,3.3059,3.3059,3.3059,3.3027,3.3018,3.3026,3.3018,3.3024,3.3019,3.302,3.3022,3.3025,3.3019,3.3018,3.3024,3.3029,3.3027,3.3024,3.3027,3.3024,3.3015,3.3019,3.3055,3.3061,3.3066,3.3068,3.3015,3.3015,3.298,3.298,3.298]}]]